Starlink 4015

operational
NORAD ID: 52616 Int'l Des: 2022-052 Owner: SPXS Country: US Constellation: starlink
LEOCIRCULAR

Über Starlink 4015

Beschreibung wird geladen...

Live-Position

3D-Globus wird geladen...

Nächste Überflüge

Höhenverlauf

Altitude vs Time

uPlot chart will show altitude changes over time

Zweizeiliger Elementsatz

1 52616U 22052U 25296.63546342 .00001144 00000-0 89970-4 0 9995
2 52616 53.2168 164.3818 0001313 89.2313 270.8830 15.08837110190307
Epoch: 23. Okt. 2025 • Age: 28 hours

Aktueller Status

Höhe 558.0 km
Geschwindigkeit 7.58 km/s
Subsatellitenpunkt -50.39°S, 128.55°E
Startdatum 14. Mai 2022
Alter 3.4 years
Typ internet

Technische Details

Klassifizierung Payload
Masse 297.00 kg
Trockenmasse 275.00 kg
Gesamtmasse 297.00 kg
Länge 0.20 m
Durchmesser 2.80 m
Spannweite 9.00 m
Form Box + pan
Hersteller SPXS
Bus-Typ Starlink
Phasenstatus In Orbit
Besitzer/Staat SPXS/US

Große Konstellationen

Loading constellations...